Cape Cod CGAS, MA

4:19 AM EDT on April 21, 2018 (GMT -0400)
Cape Cod Coast Guard Air Station

Weather History for KFMH - January, 2013

Change the Weather History Date:

Tuesday, January 8, 2013

  Actual Average Record
Temperature  
Mean Temperature 35 °F -  
Max Temperature 46 °F 36 °F 59 °F (1998)
Min Temperature 24 °F 22 °F 0 °F (2015)
Degree Days  
Heating Degree Days 30    
Moisture  
Dew Point 32 °F    
Average Humidity 81    
Maximum Humidity 100    
Minimum Humidity 58    
Precipitation  
Precipitation 0.00 in - - ()
Sea Level Pressure  
Sea Level Pressure 30.36 in    
Wind  
Wind Speed 10 mph (SW)    
Max Wind Speed 24 mph    
Max Gust Speed 34 mph    
Visibility 10 miles    
Events      
Averages and records for this station are not official NWS values.
T = Trace of Precipitation, MM = Missing Value Source: NWS Daily Summary

Daily Weather History Graph

Daily Weather History Graph

Search for Another Location

Airport or City:

Astronomy

Jan. 08, 2013 Rise Set
Actual Time 7:08 AM EST 4:29 PM EST
Civil Twilight 6:37 AM EST 5:00 PM EST
Nautical Twilight 6:03 AM EST 5:35 PM EST
Astronomical Twilight 5:29 AM EST 6:08 PM EST
Moon 3:37 AM EST (1/8) 1:28 PM EST (1/8)
Length of Visible Light 10h 22m
Length of Day
9h 20m
Waning Crescent, 14% of the Moon is Illuminated
Jan 8
Waning Crescent
Jan 11
New
Jan 18
First Quarter
Jan 26
Full
Feb 3
Last Quarter

Hourly Weather History & Observations

Time (EST) Temp. Windchill Dew Point Humidity Pressure Visibility Wind Dir Wind Speed Gust Speed Precip Events Conditions
12:15 AM 26.6 °F 20.0 °F 24.8 °F 93% 30.39 in 10.0 mi SSE 5.8 mph - N/A   Clear
12:35 AM 24.8 °F 20.5 °F 24.8 °F 100% 30.39 in 10.0 mi SSE 3.5 mph - N/A   Clear
12:55 AM 26.6 °F 21.2 °F 26.6 °F 100% 30.38 in 10.0 mi SSE 4.6 mph - N/A   Clear
1:15 AM 28.4 °F 22.2 °F 26.6 °F 93% 30.38 in 10.0 mi South 5.8 mph - N/A   Clear
1:35 AM 28.4 °F 23.3 °F 28.4 °F 100% 30.38 in 10.0 mi South 4.6 mph - N/A   Clear
1:55 AM 30.2 °F 25.4 °F 28.4 °F 93% 30.39 in 10.0 mi SW 4.6 mph - N/A   Clear
2:15 AM 28.4 °F 22.2 °F 26.6 °F 93% 30.39 in 10.0 mi WSW 5.8 mph - N/A   Clear
2:35 AM 30.2 °F 24.3 °F 28.4 °F 93% 30.39 in 10.0 mi SSW 5.8 mph - N/A   Clear
2:55 AM 30.2 °F 23.4 °F 28.4 °F 93% 30.38 in 10.0 mi South 6.9 mph - N/A   Clear
3:15 AM 28.4 °F 23.3 °F 26.6 °F 93% 30.37 in 10.0 mi SSW 4.6 mph - N/A   Clear
3:35 AM 28.4 °F 23.3 °F 26.6 °F 93% 30.36 in 10.0 mi South 4.6 mph - N/A   Clear
3:55 AM 28.4 °F 24.6 °F 26.6 °F 93% 30.36 in 7.0 mi South 3.5 mph - N/A   Clear
4:15 AM 26.6 °F 22.6 °F 26.6 °F 100% 30.36 in 4.0 mi SSW 3.5 mph - N/A   Clear
4:35 AM 26.6 °F 21.2 °F 26.6 °F 100% 30.36 in 8.0 mi South 4.6 mph - N/A   Clear
4:55 AM 26.6 °F 19.1 °F 26.6 °F 100% 30.35 in 10.0 mi SSW 6.9 mph - N/A   Clear
5:15 AM 28.4 °F 21.2 °F 26.6 °F 93% 30.35 in 10.0 mi SSW 6.9 mph - N/A   Clear
5:35 AM 26.6 °F 19.1 °F 24.8 °F 93% 30.36 in 10.0 mi SSW 6.9 mph - N/A   Clear
5:55 AM 32.0 °F 23.6 °F 30.2 °F 93% 30.36 in 10.0 mi SW 10.4 mph - N/A   Clear
6:15 AM 33.8 °F 26.4 °F 32.0 °F 93% 30.36 in 10.0 mi WSW 9.2 mph - N/A   Clear
6:35 AM 35.6 °F 27.5 °F 32.0 °F 87% 30.36 in 10.0 mi SW 11.5 mph - N/A   Clear
6:55 AM 37.4 °F 29.3 °F 32.0 °F 81% 30.36 in 10.0 mi WSW 12.7 mph - N/A   Clear
7:15 AM 37.4 °F 29.3 °F 32.0 °F 81% 30.37 in 10.0 mi WSW 12.7 mph - N/A   Clear
7:35 AM 39.2 °F 30.5 °F 32.0 °F 75% 30.38 in 10.0 mi WSW 16.1 mph 21.9 mph N/A   Clear
7:55 AM 39.2 °F 30.8 °F 32.0 °F 75% 30.38 in 10.0 mi WSW 15.0 mph 24.2 mph N/A   Clear
8:15 AM 39.2 °F 29.6 °F 32.0 °F 75% 30.39 in 10.0 mi WSW 19.6 mph 25.3 mph N/A   Clear
8:35 AM 39.2 °F 29.3 °F 32.0 °F 75% 30.39 in 10.0 mi WSW 20.7 mph 27.6 mph N/A   Clear
8:55 AM 41.0 °F 31.9 °F 32.0 °F 70% 30.40 in 10.0 mi WSW 19.6 mph 26.5 mph N/A   Clear
9:15 AM 41.0 °F 32.2 °F 32.0 °F 70% 30.40 in 10.0 mi WSW 18.4 mph 28.8 mph N/A   Clear
9:35 AM 41.0 °F 31.6 °F 32.0 °F 70% 30.39 in 10.0 mi WSW 20.7 mph 32.2 mph N/A   Clear
9:55 AM 41.0 °F 32.5 °F 32.0 °F 70% 30.39 in 10.0 mi WSW 17.3 mph 26.5 mph N/A   Clear
10:15 AM 41.0 °F 32.2 °F 32.0 °F 70% 30.39 in 10.0 mi WSW 18.4 mph 25.3 mph N/A   Clear
10:35 AM 42.8 °F 34.8 °F 32.0 °F 66% 30.38 in 10.0 mi WSW 17.3 mph 32.2 mph N/A   Clear
10:55 AM 42.8 °F 34.0 °F 32.0 °F 66% 30.37 in 10.0 mi WSW 20.7 mph 31.1 mph N/A   Clear
11:15 AM 42.8 °F 34.0 °F 32.0 °F 66% 30.36 in 10.0 mi WSW 20.7 mph 26.5 mph N/A   Clear
11:35 AM 42.8 °F 34.3 °F 32.0 °F 66% 30.35 in 10.0 mi WSW 19.6 mph 27.6 mph N/A   Clear
11:55 AM 42.8 °F 34.0 °F 32.0 °F 66% 30.34 in 10.0 mi WSW 20.7 mph 34.5 mph N/A   Clear
12:15 PM 44.6 °F 35.7 °F 32.0 °F 61% 30.33 in 10.0 mi WSW 24.2 mph 33.4 mph N/A   Clear
12:35 PM 44.6 °F 36.4 °F 33.8 °F 66% 30.32 in 10.0 mi WSW 20.7 mph 31.1 mph N/A   Clear
12:55 PM 44.6 °F 36.6 °F 33.8 °F 66% 30.31 in 10.0 mi WSW 19.6 mph 31.1 mph N/A   Clear
1:15 PM 44.6 °F 36.4 °F 33.8 °F 66% 30.31 in 10.0 mi WSW 20.7 mph 32.2 mph N/A   Clear
1:35 PM 44.6 °F 36.1 °F 33.8 °F 66% 30.31 in 10.0 mi WSW 21.9 mph 26.5 mph N/A   Unknown
1:55 PM 42.8 °F 34.5 °F 33.8 °F 70% 30.31 in 10.0 mi WSW 18.4 mph 27.6 mph N/A   Unknown
2:15 PM 42.8 °F 34.3 °F 33.8 °F 70% 30.32 in 10.0 mi WSW 19.6 mph 25.3 mph N/A   Unknown
2:35 PM 42.8 °F 34.8 °F 33.8 °F 70% 30.32 in 10.0 mi WSW 17.3 mph 23.0 mph N/A   Unknown
2:55 PM 44.6 °F 37.4 °F 33.8 °F 66% 30.32 in 10.0 mi WSW 16.1 mph 25.3 mph N/A   Unknown
3:15 PM 44.6 °F 37.8 °F 33.8 °F 66% 30.32 in 10.0 mi WSW 15.0 mph 26.5 mph N/A   Unknown
3:35 PM 44.6 °F 36.6 °F 33.8 °F 66% 30.32 in 10.0 mi WSW 19.6 mph 25.3 mph N/A   Unknown
3:55 PM 42.8 °F 36.2 °F 33.8 °F 70% 30.33 in 10.0 mi SW 12.7 mph 21.9 mph N/A   Clear
4:15 PM 41.0 °F 34.3 °F 33.8 °F 76% 30.32 in 10.0 mi SW 11.5 mph - N/A   Clear
4:35 PM 41.0 °F 34.7 °F 33.8 °F 76% 30.33 in 10.0 mi SW 10.4 mph - N/A   Clear
4:55 PM 39.2 °F 32.0 °F 33.8 °F 81% 30.33 in 10.0 mi SW 11.5 mph - N/A   Clear
5:15 PM 39.2 °F 31.2 °F 33.8 °F 81% 30.33 in 10.0 mi SW 13.8 mph 17.3 mph N/A   Clear
5:35 PM 39.2 °F 31.6 °F 33.8 °F 81% 30.33 in 10.0 mi SW 12.7 mph - N/A   Clear
5:55 PM 39.2 °F 33.0 °F 33.8 °F 81% 30.35 in 10.0 mi WSW 9.2 mph - N/A   Clear
6:15 PM 39.2 °F 33.6 °F 33.8 °F 81% 30.36 in - West 8.1 mph - N/A   Unknown
6:35 PM 37.4 °F 30.8 °F 33.8 °F 87% 30.37 in 10.0 mi WSW 9.2 mph - N/A   Clear
6:55 PM 37.4 °F 30.8 °F 35.6 °F 93% 30.36 in 10.0 mi WSW 9.2 mph - N/A   Clear
7:15 PM 37.4 °F 30.8 °F 33.8 °F 87% 30.36 in 10.0 mi WSW 9.2 mph - N/A   Clear
7:35 PM 37.4 °F 32.8 °F 33.8 °F 87% 30.37 in 10.0 mi West 5.8 mph - N/A   Clear
7:55 PM 35.6 °F 29.9 °F 32.0 °F 87% 30.37 in 10.0 mi West 6.9 mph - N/A   Clear
8:15 PM 37.4 °F 29.8 °F 33.8 °F 87% 30.37 in 10.0 mi WSW 11.5 mph - N/A   Clear
8:35 PM 37.4 °F 30.3 °F 33.8 °F 87% 30.37 in 10.0 mi West 10.4 mph - N/A   Clear
8:55 PM 37.4 °F 30.8 °F 33.8 °F 87% 30.37 in 10.0 mi West 9.2 mph - N/A   Clear
9:15 PM 37.4 °F 30.3 °F 33.8 °F 87% 30.37 in 10.0 mi West 10.4 mph - N/A   Clear
9:35 PM 35.6 °F 28.6 °F 33.8 °F 93% 30.36 in 10.0 mi West 9.2 mph - N/A   Clear
9:55 PM 35.6 °F 28.6 °F 32.0 °F 87% 30.37 in 10.0 mi West 9.2 mph - N/A   Clear
10:15 PM 35.6 °F 29.2 °F 32.0 °F 87% 30.37 in 10.0 mi West 8.1 mph - N/A   Clear
10:35 PM 35.6 °F 29.9 °F 32.0 °F 87% 30.36 in 10.0 mi West 6.9 mph - N/A   Clear
10:55 PM 33.8 °F 28.6 °F 32.0 °F 93% 30.36 in 10.0 mi WSW 5.8 mph - N/A   Clear
11:15 PM 35.6 °F 29.9 °F 32.0 °F 87% 30.36 in 10.0 mi WSW 6.9 mph - N/A   Clear
11:35 PM 35.6 °F 29.2 °F 32.0 °F 87% 30.36 in 10.0 mi WSW 8.1 mph - N/A   Clear
11:55 PM 35.6 °F 30.7 °F 32.0 °F 87% 30.37 in 10.0 mi WSW 5.8 mph - N/A   Clear